Weather History for Punta Gorda, FL

Change the Weather History Date:

Wednesday, March 20, 2013

  Actual Average Record
Temperature  
Mean Temperature 68 °F -  
Max Temperature 78 °F 78 °F 88 °F (2003)
Min Temperature 60 °F 56 °F 50 °F (2005)
Cooling Degree Days 4    
Growing Degree Days 18 (Base 50)    
Moisture  
Dew Point 61 °F    
Average Humidity 88    
Maximum Humidity 100    
Minimum Humidity 47    
Precipitation  
Precipitation 0.26 in - - ()
Sea Level Pressure  
Sea Level Pressure 29.95 in    
Wind  
Wind Speed 4 mph (WNW)    
Max Wind Speed 22 mph    
Max Gust Speed 26 mph    
Visibility 6 miles    
Events Fog , Rain    
Averages and records for this station are not official NWS values.
T = Trace of Precipitation, MM = Missing Value Source: NWS Daily Summary

Daily Weather History Graph

Daily Weather History Graph

Search for Another Location

Airport:

Trip Planner

Search our weather history database for the weather conditions in past years. The results will help you decide how hot, cold, wet, or windy it might be!

Date:

Astronomy

Mar. 20, 2013 Rise Set
Actual Time 7:31 AM EDT 7:39 PM EDT
Civil Twilight 7:08 AM EDT 8:02 PM EDT
Nautical Twilight 6:41 AM EDT 8:29 PM EDT
Astronomical Twilight 6:14 AM EDT 8:56 PM EDT
Moon 1:42 PM EDT 2:41 AM EDT
Length of Visible Light 12h 54m
Length of Day
12h 07m
First Quarter, 59% of the Moon is Illuminated
Mar 20
First Quarter
Mar 27
Full
Apr 3
Last Quarter
Apr 10
New
Apr 18
First Quarter

Hourly Weather History & Observations

Time (EDT) Temp. Dew Point Humidity Pressure Visibility Wind Dir Wind Speed Gust Speed Precip Events Conditions
12:53 AM 64.0 °F 63.0 °F 96% 29.99 in 5.0 mi Calm Calm - N/A   Clear
1:01 AM 64.4 °F 62.6 °F 94% 29.99 in 1.2 mi Calm Calm - N/A   Clear
1:03 AM 62.6 °F 62.6 °F 100% 29.99 in 0.8 mi Calm Calm - N/A   Mist
1:50 AM 62.6 °F 62.6 °F 100% 29.99 in 1.2 mi North 5.8 mph - N/A   Scattered Clouds
1:53 AM 62.1 °F 62.1 °F 100% 29.99 in 1.2 mi NNW 3.5 mph - N/A   Scattered Clouds
2:00 AM 62.6 °F 62.6 °F 100% 29.98 in 1.0 mi North 5.8 mph - N/A   Mist
2:04 AM 62.6 °F 62.6 °F 100% 29.98 in 2.0 mi North 5.8 mph - N/A   Partly Cloudy
2:12 AM 64.4 °F 62.6 °F 94% 29.98 in 8.0 mi NNW 5.8 mph - N/A   Clear
2:53 AM 64.0 °F 63.0 °F 96% 29.96 in 10.0 mi North 3.5 mph - N/A   Clear
3:27 AM 62.6 °F 60.8 °F 94% 29.94 in 1.5 mi Calm Calm - N/A   Clear
3:37 AM 62.6 °F 62.6 °F 100% 29.94 in 0.8 mi Calm Calm - N/A   Clear
3:42 AM 62.6 °F 62.6 °F 100% 29.94 in 2.0 mi Calm Calm - N/A   Clear
3:53 AM 63.0 °F 62.1 °F 97% 29.95 in 1.0 mi Calm Calm - N/A   Clear
4:00 AM 62.6 °F 60.8 °F 94% 29.95 in 0.5 mi Calm Calm - 0.01 in Fog Fog
4:38 AM 62.6 °F 60.8 °F 94% 29.95 in 2.0 mi Calm Calm - 0.01 in   Clear
4:45 AM 62.6 °F 60.8 °F 94% 29.95 in 10.0 mi Calm Calm - 0.01 in   Clear
4:53 AM 62.1 °F 61.0 °F 96% 29.96 in 10.0 mi Calm Calm - 0.01 in   Clear
5:48 AM 60.8 °F 60.8 °F 100% 29.95 in 2.0 mi Calm Calm - N/A   Clear
5:53 AM 60.1 °F 60.1 °F 100% 29.94 in 3.0 mi Calm Calm - N/A   Clear
6:05 AM 60.8 °F 60.8 °F 100% 29.94 in 1.5 mi Calm Calm - N/A   Clear
6:15 AM 60.8 °F 60.8 °F 100% 29.95 in 3.0 mi Calm Calm - N/A   Clear
6:53 AM 60.1 °F 59.0 °F 96% 29.97 in 10.0 mi Calm Calm - N/A   Clear
7:53 AM 62.1 °F 60.1 °F 93% 29.98 in 10.0 mi Calm Calm - N/A   Clear
8:53 AM 64.9 °F 62.1 °F 90% 30.01 in 10.0 mi Calm Calm - N/A   Clear
9:53 AM 66.0 °F 63.0 °F 90% 30.04 in 10.0 mi WNW 18.4 mph 25.3 mph 0.00 in Rain Light Rain
10:40 AM 69.8 °F 59.0 °F 68% 29.98 in 10.0 mi SW 21.9 mph 26.5 mph 0.01 in Rain Light Rain
10:53 AM 68.0 °F 59.0 °F 73% 29.96 in 10.0 mi SSW 20.7 mph 26.5 mph 0.01 in Rain Light Rain
11:53 AM 75.0 °F 57.9 °F 55% 29.96 in 10.0 mi West 9.2 mph - 0.00 in   Clear
12:53 PM 77.0 °F 55.0 °F 47% 29.97 in 10.0 mi WNW 18.4 mph 24.2 mph N/A   Clear
1:53 PM 75.0 °F 57.0 °F 53% 29.95 in 10.0 mi WNW 16.1 mph - N/A   Clear
2:53 PM 73.9 °F 59.0 °F 59% 29.91 in 10.0 mi West 15.0 mph - N/A   Clear
3:53 PM 73.9 °F 57.0 °F 55% 29.88 in 10.0 mi WNW 11.5 mph - N/A   Scattered Clouds
4:53 PM 71.1 °F 57.9 °F 63% 29.85 in 10.0 mi West 4.6 mph - 0.00 in Rain Light Rain
5:53 PM 70.0 °F 59.0 °F 68% 29.89 in 10.0 mi WSW 9.2 mph - 0.00 in Rain Light Rain
6:53 PM 66.9 °F 64.0 °F 90% 29.91 in 10.0 mi WSW 9.2 mph - 0.01 in Rain Light Rain
7:53 PM 66.0 °F 63.0 °F 90% 29.96 in 6.0 mi NW 10.4 mph - 0.07 in Rain Rain
8:53 PM 64.9 °F 62.1 °F 90% 29.95 in 6.0 mi West 6.9 mph - 0.16 in Rain Rain
9:53 PM 64.0 °F 62.1 °F 93% 29.93 in 10.0 mi WNW 5.8 mph - 0.00 in   Partly Cloudy
10:18 PM 64.4 °F 62.6 °F 94% 29.93 in 10.0 mi NW 8.1 mph - N/A   Mostly Cloudy
10:25 PM 64.4 °F 62.6 °F 94% 29.93 in 10.0 mi NW 9.2 mph - N/A   Overcast
10:40 PM 64.4 °F 62.6 °F 94% 29.93 in 10.0 mi WNW 8.1 mph - N/A   Overcast
10:53 PM 64.0 °F 62.1 °F 93% 29.94 in 10.0 mi WNW 5.8 mph - N/A   Mostly Cloudy
11:53 PM 64.0 °F 62.1 °F 93% 29.93 in 10.0 mi WNW 6.9 mph - N/A   Overcast